GFSMW_250_spd_000.txt.gz
Wind_Speed
14 13 12 11 9 7 6 4 5 6 7 9 10 12 15 17 17 19 21 22 22 23 23 25 25 23 26 29 32 36 34 39 38 37 38 39 36 41 43 45 46 56 40
7 6 5 6 5 4 3 2 2 2 6 10 13 16 17 19 20 23 24 25 26 26 25 26 27 27 26 29 31 36 36 42 41 37 36 38 35 38 44 47 46 53 42
5 2 2 3 2 2 2 2 3 4 9 13 15 17 20 22 23 25 27 28 27 26 26 26 27 28 26 28 30 34 37 40 37 37 37 36 40 37 42 48 48 58 56
12 9 7 6 6 5 5 6 7 9 12 15 16 19 22 24 27 27 28 30 28 28 27 26 26 26 27 28 31 39 38 37 35 34 35 34 39 44 41 48 50 54 65
16 14 11 10 9 8 9 10 12 15 18 20 21 22 24 26 28 30 29 29 29 29 29 29 29 28 29 31 38 43 36 38 39 35 33 35 34 42 51 46 52 60 56
18 15 14 12 12 12 15 17 19 21 23 24 25 27 28 29 31 31 31 31 33 33 33 34 32 33 34 39 42 39 40 38 36 37 36 36 32 41 48 40 45 55 58
20 16 16 16 16 19 22 23 25 26 29 29 30 31 31 31 31 33 34 36 38 39 37 36 37 38 41 46 40 39 47 41 40 41 45 40 39 45 45 47 48 52 57
24 23 21 20 22 25 27 28 29 30 31 33 34 34 33 33 33 34 37 39 41 41 40 39 39 36 37 40 46 49 47 47 40 45 49 45 44 42 47 53 56 59 52
29 28 27 27 29 30 32 33 34 34 34 35 36 35 34 35 37 38 40 42 43 42 41 39 39 35 36 40 48 50 50 39 42 58 55 47 46 50 51 57 64 66 55
33 33 32 31 32 33 35 36 38 39 38 37 37 36 36 37 40 42 44 46 46 45 36 39 43 39 46 50 49 47 46 45 56 58 52 50 54 58 60 59 59 60 60
38 37 35 36 39 40 40 41 41 42 41 40 38 37 38 41 43 47 47 47 48 42 42 40 45 43 48 50 52 49 50 54 58 58 56 55 58 65 58 61 60 64 63
44 42 40 41 43 43 44 44 42 43 44 43 40 40 41 44 47 48 50 47 44 45 44 46 45 48 51 49 49 56 56 57 61 58 57 64 69 63 62 64 60 63 59
48 46 44 44 46 46 45 44 44 46 47 46 44 44 47 49 50 51 51 50 49 44 43 47 56 60 62 55 56 61 66 65 65 64 66 67 66 65 63 64 64 62 57
51 51 48 48 46 46 47 46 48 50 49 50 49 49 52 54 53 53 44 45 50 51 51 53 52 56 63 65 68 68 66 67 68 66 67 66 68 68 69 70 60 64 67
56 55 55 51 48 48 49 49 52 53 52 54 54 56 56 57 56 49 40 45 48 50 53 57 59 58 63 67 71 67 65 68 74 66 68 69 73 71 65 72 72 68 68
63 61 59 54 53 52 52 53 57 56 57 59 61 61 61 57 53 52 46 47 51 53 59 56 59 60 63 68 72 71 72 75 77 77 76 73 74 68 69 75 70 71 76
66 64 63 58 56 54 55 60 62 61 63 65 66 64 61 58 54 53 51 52 56 59 62 67 62 64 69 71 71 77 79 78 76 75 75 73 63 69 68 67 72 75 78
68 67 65 61 59 57 61 63 67 66 68 70 69 67 65 59 55 52 54 57 61 65 69 70 68 68 68 69 71 72 75 78 79 73 70 72 74 73 70 70 77 80 82
70 70 68 64 61 60 65 69 71 71 72 72 70 68 65 62 59 59 60 62 68 69 69 71 73 72 65 69 73 75 75 75 76 74 66 64 67 68 75 77 78 82 86
74 73 71 69 66 68 71 74 72 72 73 74 72 67 64 63 64 63 66 69 71 71 70 72 67 67 71 73 76 73 66 65 69 71 71 72 73 75 78 79 80 86 88
77 76 76 74 73 74 75 74 75 74 72 72 70 69 66 63 65 70 72 74 74 69 67 68 68 69 70 72 74 72 70 71 71 73 72 73 74 71 76 80 84 84 82
82 80 79 79 79 77 77 79 76 73 71 70 71 71 70 70 72 74 74 74 72 69 68 70 70 71 71 67 69 73 77 79 80 77 71 71 74 77 76 78 78 73 75
84 82 81 82 80 81 79 80 75 72 70 69 70 71 72 74 76 76 75 74 72 72 73 74 67 67 69 75 78 76 76 75 74 75 76 77 77 78 78 75 76 81 83
82 82 82 80 80 81 78 79 77 73 70 71 72 72 74 75 75 73 74 74 72 74 72 68 70 73 77 77 77 79 82 80 78 78 77 77 76 78 78 79 84 86 88
78 80 79 78 78 78 77 79 76 73 73 73 75 76 75 73 71 73 72 71 73 76 77 77 75 77 79 82 84 86 88 85 80 78 76 77 80 81 82 86 88 88 82
76 77 78 77 77 78 79 79 77 75 74 76 77 76 72 75 72 72 73 76 80 80 79 78 79 79 83 86 88 94 91 80 77 75 75 79 83 87 89 91 87 75 69

GFSMW_250_spd_006.txt.gz
Wind_Speed
16 15 15 14 15 13 10 7 5 4 6 7 9 10 11 13 15 17 17 18 19 18 17 17 18 18 18 18 17 19 22 27 23 30 34 31 33 29 32 36 31 28 31
18 16 15 13 11 10 9 8 7 4 2 5 8 9 10 15 18 19 19 17 15 16 18 19 20 19 18 17 16 17 22 23 26 28 28 32 32 30 37 37 36 36 30
16 15 14 13 12 10 9 7 6 4 4 7 10 13 13 15 18 19 20 19 18 20 21 21 20 21 21 19 18 19 18 24 25 28 26 31 36 35 30 35 37 35 33
10 9 10 11 10 10 9 8 7 6 7 10 12 12 14 16 18 19 20 19 20 22 25 26 24 24 23 20 20 22 22 26 29 32 30 34 33 33 33 34 40 41 36
14 13 13 12 12 11 11 10 9 9 11 13 14 14 16 19 19 19 20 21 23 25 28 28 28 26 23 25 24 26 28 30 31 32 37 38 38 34 31 34 41 40 38
23 20 17 14 13 14 13 12 12 12 14 16 16 17 18 21 21 21 22 23 25 28 31 33 34 32 28 28 24 31 34 33 36 39 39 43 42 34 34 37 40 40 39
30 28 24 21 19 18 17 17 15 15 18 18 18 20 21 22 23 23 25 26 28 31 33 35 39 38 39 36 34 36 37 38 40 44 46 45 43 44 39 39 38 40 39
33 31 30 27 24 22 20 21 21 22 22 22 22 22 24 25 26 27 27 28 29 33 36 38 42 41 41 41 39 40 41 40 43 44 47 48 45 45 44 45 41 40 37
30 31 30 28 27 26 25 25 27 27 27 27 27 26 27 28 28 30 29 30 32 34 39 41 42 45 45 42 41 41 44 47 47 47 48 52 50 48 47 48 49 43 43
35 35 34 32 31 29 28 29 30 31 30 32 32 31 30 32 32 31 32 33 35 37 41 45 46 47 48 47 42 44 46 47 51 51 55 54 51 51 51 53 52 52 50
38 41 38 37 36 35 35 33 34 34 33 34 35 34 34 36 35 35 36 36 38 41 44 47 51 49 50 47 46 47 51 53 51 53 58 58 57 54 55 57 58 54 51
45 46 42 40 38 39 38 37 37 37 37 37 38 39 40 40 39 40 41 40 42 45 48 52 52 53 53 53 52 49 49 52 56 60 62 61 56 57 58 60 64 58 57
49 50 47 43 44 43 42 41 41 40 39 40 41 43 44 45 44 44 46 46 46 47 51 55 56 55 55 54 54 55 56 58 60 62 63 63 59 58 58 58 57 56 56
55 51 53 49 50 49 48 46 43 42 43 45 47 47 48 49 50 50 50 50 51 52 55 60 62 60 57 56 56 56 58 59 63 64 65 64 65 65 66 62 59 56 58
60 55 56 54 52 53 52 49 49 46 49 51 52 51 52 54 55 55 54 54 54 55 58 61 65 63 60 58 57 58 62 64 66 68 66 67 67 68 64 62 58 65 63
68 61 61 57 58 57 57 55 53 54 55 56 58 55 56 58 59 59 58 57 56 58 60 64 64 63 63 61 59 61 63 65 68 68 70 70 67 69 68 64 64 70 68
71 66 63 65 64 62 61 60 58 59 61 61 62 61 62 63 63 62 59 59 60 61 62 64 63 64 66 65 64 60 65 68 68 67 72 71 66 69 67 68 73 73 79
79 71 72 68 66 66 62 62 62 64 65 65 66 65 66 68 66 64 62 62 64 65 65 66 65 66 68 69 67 68 70 68 69 73 72 70 70 70 69 70 81 87 85
75 81 81 79 70 69 70 68 65 66 68 72 68 68 68 69 69 68 67 67 70 69 69 69 68 69 70 70 71 74 72 71 77 76 74 71 73 73 73 85 89 87 83
84 82 92 87 69 76 77 72 71 71 72 76 73 71 73 72 72 71 72 73 74 75 74 73 73 71 70 74 77 76 74 77 77 77 78 78 77 80 87 87 85 83 79
93 86 92 94 78 81 80 79 78 75 75 76 77 77 78 78 76 77 79 78 78 78 78 76 76 75 76 76 78 76 76 79 81 80 81 83 83 90 92 89 81 77 69
94 91 103 93 85 85 83 82 80 78 77 79 81 81 82 83 81 84 84 83 79 79 78 77 77 77 77 76 77 72 77 83 82 81 80 83 90 93 90 85 81 75 73
99 100 101 98 90 86 85 85 83 81 80 80 84 86 87 86 85 84 86 85 81 79 76 75 77 77 76 77 76 82 86 82 81 81 85 86 91 87 84 81 79 79 81
104 103 101 97 91 87 89 89 87 86 85 84 85 88 89 87 85 85 84 82 80 76 75 76 77 75 76 81 83 82 83 84 82 86 88 93 89 86 81 81 82 83 87
96 99 100 98 95 91 90 90 87 85 84 84 86 87 85 86 83 84 81 79 77 78 77 77 78 77 74 78 84 84 82 82 85 88 90 88 84 80 81 81 83 86 87
90 95 99 100 95 93 90 87 86 84 82 83 84 84 83 82 80 77 74 79 78 75 78 77 79 78 80 80 78 79 80 82 88 88 83 82 82 83 84 83 85 87 79

GFSMW_250_spd_009.txt.gz
Wind_Speed
17 17 18 17 16 17 15 10 10 8 7 6 8 7 9 10 12 14 14 14 14 14 17 19 20 19 18 18 19 19 19 15 20 24 26 26 30 34 27 27 30 30 31
17 18 19 18 16 13 11 8 7 7 4 2 7 9 8 9 12 13 13 14 15 18 19 21 23 23 22 20 20 20 21 22 27 30 29 29 30 32 33 35 30 30 30
17 17 18 18 17 15 12 10 8 8 5 2 5 7 8 10 13 13 14 14 17 18 22 24 25 26 27 26 24 24 24 22 24 29 30 29 31 33 34 30 34 35 35
15 15 15 13 12 12 12 11 10 8 8 6 6 8 10 10 13 15 16 17 18 21 23 25 27 29 30 29 29 28 27 25 31 30 33 33 35 37 38 35 33 29 35
14 12 11 12 12 11 12 11 11 11 11 9 8 9 11 13 14 16 18 18 20 23 25 28 30 30 34 36 35 33 29 30 31 31 31 35 35 35 36 37 37 39 33
19 17 15 12 11 11 12 11 12 12 12 11 11 12 13 15 17 18 19 21 22 23 26 29 33 35 38 42 41 40 38 30 32 34 38 37 35 37 40 38 39 37 38
26 26 25 20 15 14 14 14 14 15 15 15 15 16 17 18 20 20 21 23 25 27 28 31 33 37 38 39 40 41 40 37 35 36 37 38 41 44 45 38 36 38 37
33 32 32 26 25 23 19 17 17 16 17 20 22 21 22 23 23 23 23 24 25 29 31 32 34 37 40 43 44 44 40 40 39 41 43 44 44 46 46 47 43 36 36
32 37 34 34 32 28 25 23 21 22 21 24 25 26 26 26 25 26 25 26 27 30 34 35 38 39 42 44 46 45 45 41 41 42 44 47 50 49 48 48 46 43 42
37 40 29 38 35 31 28 27 26 26 25 28 28 29 29 31 28 28 27 28 29 32 35 38 40 44 45 47 49 47 44 44 45 45 45 45 48 50 49 50 53 48 48
41 40 35 39 33 32 30 31 31 30 31 31 31 32 34 35 32 33 32 31 33 37 38 40 43 45 48 50 50 51 49 45 45 47 48 50 51 51 49 50 49 45 48
45 44 44 41 37 38 36 35 35 34 35 35 35 36 37 36 35 37 38 37 37 40 42 44 45 49 50 52 53 53 51 52 54 53 51 52 56 56 55 54 54 46 50
53 47 44 47 42 44 40 40 39 38 38 40 41 41 42 40 40 41 43 43 43 43 44 45 49 51 53 57 58 55 55 55 55 56 57 58 60 58 59 58 56 54 53
58 52 50 49 48 46 46 45 44 42 43 46 47 47 47 45 45 46 48 48 48 48 48 50 49 50 54 58 62 61 59 61 59 59 61 64 62 60 63 63 61 60 60
64 62 54 52 54 55 52 50 49 48 48 51 53 54 52 50 51 51 53 53 52 52 54 55 55 54 56 58 63 65 64 63 64 64 65 68 63 65 67 66 65 66 66
69 68 65 57 56 57 56 56 52 51 52 56 57 59 58 55 54 57 56 55 53 54 55 57 57 58 59 63 65 65 66 67 64 67 71 68 66 65 69 70 68 67 69
79 73 69 66 63 61 63 61 60 56 55 59 62 63 64 61 59 60 60 58 59 60 60 61 60 61 63 65 67 68 70 68 70 71 72 74 68 69 73 71 73 71 70
81 79 73 69 67 66 65 65 64 63 61 63 67 68 69 69 64 63 63 61 63 66 69 68 60 66 68 70 70 70 70 71 72 75 72 72 72 75 74 75 74 74 79
91 87 79 78 75 70 69 66 67 69 68 67 70 72 72 73 70 68 64 64 63 66 53 48 73 72 72 74 72 74 73 72 75 73 75 74 78 78 74 78 78 77 83
91 93 87 86 80 79 75 75 73 72 71 72 74 75 74 74 74 72 69 67 66 64 73 80 79 75 76 74 78 78 77 76 77 74 75 78 77 79 79 81 81 82 85
93 95 97 94 88 84 80 82 82 78 78 77 74 76 77 76 76 74 72 72 73 74 77 80 81 80 80 81 79 74 76 79 77 77 80 80 77 77 79 80 83 86 86
88 96 99 98 95 91 87 85 85 84 83 82 80 78 80 82 80 74 76 78 77 81 84 84 83 84 82 80 77 79 78 78 81 79 78 79 79 79 78 81 85 85 80
78 85 91 100 98 96 92 92 91 88 90 89 85 85 83 84 83 79 81 82 84 84 84 86 87 85 83 81 79 76 77 81 76 78 78 78 75 78 81 85 83 83 83
61 70 79 85 89 94 96 97 97 94 89 88 89 90 90 87 86 82 86 86 85 86 87 87 83 82 82 78 79 76 76 74 80 77 80 77 78 82 82 83 84 88 91
24 39 56 70 79 85 88 96 98 97 93 89 85 89 91 88 86 87 88 86 86 86 85 85 84 81 79 78 72 73 75 77 79 79 76 78 81 79 82 87 90 94 93
34 59 60 51 62 70 74 80 86 93 95 92 91 89 85 83 85 86 85 85 85 85 82 80 78 77 72 67 64 73 77 79 79 78 79 78 79 81 88 91 96 97 90

GFSMW_250_spd_012.txt.gz
Wind_Speed
23 24 23 23 22 21 19 16 14 12 10 8 7 4 3 6 9 12 13 12 13 14 17 19 21 22 23 23 22 23 23 23 23 23 27 30 32 35 35 31 31 30 25
24 23 24 21 21 20 18 13 13 11 9 6 3 2 4 6 9 12 12 12 13 15 17 19 21 24 26 27 27 26 25 27 25 25 27 27 31 34 35 33 33 34 33
14 15 21 24 23 22 17 14 13 12 7 3 1 3 6 7 11 13 12 13 14 15 18 19 22 24 26 28 31 31 31 29 28 29 31 29 29 32 30 31 35 35 34
17 16 16 18 20 16 14 11 11 13 12 9 6 7 9 10 11 14 12 13 16 18 20 22 24 26 29 32 34 36 36 37 31 25 27 28 31 34 34 35 37 35 35
18 18 18 17 16 14 12 11 11 12 12 11 10 10 11 13 13 13 13 14 16 18 20 23 26 29 31 33 35 37 37 37 34 32 31 33 32 34 35 36 43 40 33
22 20 16 15 14 14 13 13 13 14 14 13 14 15 14 16 16 16 14 15 19 21 22 25 28 30 31 33 34 34 35 35 34 33 32 32 33 35 36 38 41 42 44
26 27 22 16 14 11 12 14 14 15 17 17 18 19 19 19 19 19 18 18 21 23 26 28 30 33 34 34 35 35 36 35 35 35 34 34 35 36 38 39 41 40 39
35 31 29 24 21 18 17 16 15 17 17 19 21 23 24 23 21 20 20 21 23 24 28 30 32 34 36 37 37 37 36 36 35 35 35 36 36 38 38 38 39 36 38
39 37 34 32 30 28 25 23 24 22 20 20 24 25 26 25 23 22 23 23 25 26 28 31 34 36 38 40 40 39 40 38 38 37 38 38 40 39 40 41 40 38 42
40 42 42 42 34 32 29 28 29 29 27 25 27 29 29 28 26 25 26 26 28 30 31 34 36 39 41 43 45 45 43 44 43 41 41 43 43 46 47 49 42 41 39
42 44 42 39 31 31 35 31 34 32 31 30 30 32 33 31 29 29 29 30 30 33 35 37 38 40 42 44 48 50 47 49 48 49 47 47 49 51 52 50 44 45 46
45 44 43 43 38 36 37 32 37 35 36 34 35 37 35 34 34 33 34 36 35 37 39 40 41 44 47 48 48 51 53 53 54 52 50 53 53 53 55 52 49 47 49
52 51 48 46 45 41 40 37 38 41 40 42 40 38 38 39 38 37 37 40 42 41 42 42 45 46 49 51 50 52 55 57 57 58 56 58 59 61 61 58 53 47 53
60 57 51 50 48 48 45 42 45 45 44 45 44 43 42 42 43 42 42 44 46 45 45 43 47 50 53 54 55 55 58 60 63 61 62 65 66 66 67 64 61 57 58
64 63 54 56 52 50 51 49 50 49 48 51 50 48 47 47 47 47 47 49 50 47 48 49 52 54 59 62 60 49 60 66 71 63 71 71 69 71 72 69 64 66 65
71 70 64 60 57 55 56 56 55 54 52 54 57 54 53 53 52 51 50 52 54 50 51 52 53 58 64 58 38 53 63 65 70 69 74 73 73 73 77 72 73 73 71
79 74 71 68 63 63 62 59 61 60 57 58 61 62 60 59 57 56 55 56 56 55 55 54 52 58 57 43 38 63 77 74 68 78 76 76 74 74 78 76 76 72 74
72 83 78 79 75 71 67 66 66 66 66 64 64 66 67 67 63 61 59 60 60 59 58 56 51 52 35 38 49 77 81 76 81 80 77 78 80 79 79 75 75 77 77
55 69 82 83 81 76 72 71 69 72 70 66 68 71 73 73 71 66 65 64 64 62 62 60 60 45 46 63 76 85 82 83 83 80 81 81 82 78 77 74 78 79 78
55 66 72 83 87 83 81 77 71 73 72 73 75 77 75 72 72 72 72 72 69 65 68 67 66 64 60 69 75 78 83 84 81 83 83 81 81 81 75 77 77 77 76
49 54 65 69 75 83 85 83 78 75 74 79 83 82 78 76 76 77 78 79 74 74 73 72 77 75 75 76 76 80 83 82 80 82 80 83 83 79 79 76 77 80 80
55 53 57 62 65 66 72 78 80 79 83 84 87 84 84 84 82 83 82 82 80 83 79 80 83 84 78 80 83 83 82 81 82 81 81 80 75 77 79 78 81 81 87
54 54 57 56 58 57 61 64 70 79 85 88 90 90 89 89 89 87 86 84 86 89 88 86 85 78 75 85 86 83 83 83 81 77 76 70 74 79 79 81 85 87 90
53 57 54 48 43 42 37 39 47 53 63 74 85 91 92 92 91 86 84 86 90 89 90 83 75 76 84 84 84 85 82 79 76 74 73 73 74 75 81 85 87 92 98
56 49 43 42 43 36 31 30 33 34 36 48 66 78 80 82 84 82 76 73 62 60 63 68 71 74 80 83 84 79 78 77 73 68 71 71 75 79 81 87 91 99 104
37 19 7 8 33 51 57 51 44 60 66 54 55 62 60 62 62 62 43 62 70 78 75 72 83 90 87 78 77 77 66 66 66 66 72 71 76 84 87 88 92 103 99

GFSMW_250_spd_015.txt.gz
Wind_Speed
15 20 26 26 27 26 23 19 16 14 12 9 6 5 2 5 9 9 10 10 11 14 16 18 22 24 25 27 29 30 29 29 26 23 23 26 27 28 31 33 32 33 32
21 27 26 24 24 27 23 19 17 14 11 9 5 3 2 4 8 8 8 10 12 12 14 17 20 22 25 26 30 33 34 33 32 28 27 24 25 29 30 33 34 35 36
24 22 23 22 23 26 22 18 17 15 13 9 6 2 2 5 8 8 9 11 12 15 17 20 22 23 27 30 32 35 34 33 34 34 34 34 32 28 29 31 32 35 36
20 20 21 18 17 21 17 14 14 15 15 14 10 5 4 5 7 8 9 10 14 14 17 18 20 24 28 30 33 33 32 33 35 33 33 32 33 33 31 31 31 34 37
16 18 22 20 19 22 19 14 13 15 17 16 13 9 6 7 8 9 12 13 14 15 17 19 22 25 28 30 31 31 32 34 34 33 32 30 31 33 34 35 35 37 37
18 19 22 24 20 18 17 16 17 18 18 18 17 14 10 10 9 11 15 16 18 18 20 22 23 26 29 30 32 33 35 35 35 34 32 33 33 34 33 35 37 40 39
23 24 21 20 21 20 19 18 18 19 18 20 19 17 15 15 12 12 16 18 17 19 20 23 25 27 29 31 33 34 34 34 35 35 34 33 35 36 36 37 38 41 41
28 29 27 23 22 22 20 18 17 17 17 18 20 21 20 20 17 13 16 20 19 20 21 23 25 27 29 32 34 36 36 34 35 36 36 37 34 37 39 43 41 45 40
33 34 31 28 28 25 22 21 22 22 21 20 21 23 24 22 21 19 19 23 21 23 23 26 28 29 32 34 36 38 39 39 37 36 38 39 35 38 42 43 47 46 47
34 36 38 36 35 31 28 29 29 30 29 27 25 26 27 27 23 23 25 27 26 25 27 29 31 32 34 36 39 40 42 42 43 41 40 40 38 43 48 49 50 50 51
39 40 39 41 41 38 37 36 38 37 35 35 29 29 30 31 28 27 29 30 30 29 30 31 32 34 37 39 43 46 49 50 48 42 42 43 38 47 56 57 56 55 55
46 42 42 42 44 45 42 42 40 37 38 39 33 31 34 33 33 33 33 34 34 33 34 34 35 36 39 42 46 51 51 59 50 40 42 48 46 54 65 64 63 61 60
49 47 47 45 44 45 43 42 42 40 39 40 39 34 36 36 35 38 37 38 39 38 38 37 36 38 42 46 51 53 57 62 43 44 50 57 59 66 70 70 69 67 65
54 53 53 52 50 48 49 46 43 45 42 43 44 39 39 41 41 43 43 42 43 43 42 42 41 41 42 46 51 58 64 52 36 47 63 72 69 76 79 76 72 72 71
59 58 58 57 57 56 54 54 52 50 47 48 50 46 44 45 45 48 49 49 49 47 47 46 44 43 43 47 51 59 51 40 39 51 69 70 74 82 86 84 78 72 70
64 66 65 64 62 63 60 59 58 55 54 54 55 53 50 52 51 52 52 52 53 53 52 52 48 49 49 48 48 53 51 44 44 50 56 78 83 84 88 85 80 75 76
39 53 70 71 69 69 69 66 64 63 59 59 59 58 56 57 57 56 57 56 57 56 57 56 53 54 54 55 50 55 61 48 48 66 76 79 85 87 88 86 80 81 81
39 40 44 58 75 77 75 74 71 66 66 67 66 63 64 64 62 61 61 60 61 61 61 61 57 58 59 60 58 54 59 64 66 77 78 85 81 87 87 82 83 81 80
39 40 41 44 50 64 77 82 77 75 72 72 70 72 71 68 68 68 67 65 65 65 63 61 59 63 64 65 68 66 66 66 73 77 79 74 81 84 81 83 86 80 78
44 46 44 45 49 56 64 72 78 83 79 77 77 76 78 75 71 74 72 69 68 68 68 64 64 69 70 72 76 76 75 77 77 75 73 73 78 81 84 82 81 75 76
53 48 48 45 48 54 61 65 72 73 77 85 85 83 81 80 79 78 75 77 78 76 73 70 70 74 77 78 79 83 84 79 68 70 71 74 82 87 81 82 76 78 79
57 54 54 56 52 54 58 61 64 66 71 78 84 85 85 83 82 80 80 80 84 85 80 77 76 76 80 79 81 80 73 56 61 67 68 81 80 78 82 76 76 76 76
65 60 62 61 60 62 60 58 57 60 64 67 68 75 80 81 83 81 83 85 89 90 81 80 80 77 76 75 70 53 50 56 65 68 74 75 76 77 83 79 79 74 81
71 68 64 65 63 61 59 51 50 52 54 55 56 55 59 64 61 69 65 60 71 82 69 69 69 64 63 62 58 51 56 62 69 75 78 75 78 81 82 74 79 79 86
76 72 64 61 63 65 62 59 50 49 51 52 53 50 29 36 42 49 58 62 59 55 43 43 41 52 64 65 54 64 65 69 78 83 78 75 79 82 75 76 79 82 88
75 73 64 63 52 61 63 50 41 34 36 34 35 31 26 33 42 55 62 38 28 20 25 30 46 60 54 74 72 70 76 77 81 79 70 74 78 72 76 77 79 85 83

GFSMW_250_spd_021.txt.gz
Wind_Speed
14 18 13 14 23 25 26 23 21 17 15 13 11 9 8 9 11 12 12 13 13 13 17 17 20 22 25 26 27 29 30 31 31 30 28 26 28 27 29 30 31 35 34
13 18 17 19 26 27 26 21 20 17 14 13 11 8 7 7 8 10 10 11 11 12 13 15 18 20 23 24 24 26 28 29 29 29 27 27 25 25 28 32 32 34 37
13 19 21 28 26 26 22 20 17 16 13 11 10 8 4 5 6 8 9 8 9 9 11 12 15 18 20 21 23 24 25 26 27 25 25 25 21 23 27 32 33 37 38
14 20 25 27 29 26 22 19 17 15 13 11 8 7 4 2 3 4 7 8 8 8 9 9 12 15 16 18 21 22 24 25 27 25 24 24 22 16 19 28 33 37 41
17 24 29 31 28 26 24 21 18 16 13 12 10 9 7 4 1 1 4 5 8 9 10 9 11 12 13 15 18 19 20 22 25 26 26 29 21 18 17 21 31 44 48
22 27 28 29 28 26 26 23 19 18 16 15 14 14 12 9 7 5 5 7 8 9 11 10 10 11 12 15 16 18 20 22 25 26 31 28 26 18 17 17 25 46 52
28 25 26 26 24 22 25 24 20 17 16 16 16 15 15 13 11 9 10 9 9 9 10 11 12 14 15 16 17 18 22 26 29 33 42 30 19 12 13 19 33 43 49
26 25 25 27 25 26 26 27 24 20 18 17 16 16 15 14 14 12 13 14 12 11 11 13 13 15 18 19 20 21 23 26 31 35 38 34 22 14 21 29 35 44 44
26 25 26 26 25 24 25 25 25 24 22 19 19 17 15 13 13 15 15 16 19 15 14 18 19 18 20 21 25 25 26 28 32 35 37 36 27 27 32 35 39 47 47
27 25 26 29 30 28 28 28 26 24 22 19 18 17 17 16 15 17 19 22 22 22 18 22 23 22 24 25 26 27 28 30 34 36 38 38 36 37 36 39 42 46 46
34 30 28 27 29 29 31 32 30 28 27 25 23 23 24 24 23 24 25 25 29 28 21 24 26 26 26 29 31 31 32 32 36 39 39 40 43 43 47 43 42 49 49
34 35 35 31 32 32 35 36 35 35 35 33 32 31 30 31 31 32 31 32 32 32 28 27 29 30 30 32 36 36 35 36 40 42 42 44 45 47 50 51 53 52 53
40 38 36 36 34 37 38 40 39 39 38 38 39 37 37 38 37 34 35 34 34 33 34 34 34 35 37 37 39 41 39 39 43 47 48 50 52 54 56 58 62 57 54
49 47 43 40 38 39 41 42 42 43 43 43 45 44 42 40 39 39 40 37 38 38 37 38 40 41 42 43 42 43 44 45 46 50 52 53 55 58 59 59 60 60 58
55 51 48 47 47 47 47 46 45 45 43 42 44 44 45 44 43 43 43 42 42 43 43 43 45 46 47 48 47 46 49 51 53 53 55 57 59 61 64 64 58 62 63
56 58 56 54 52 53 53 53 52 51 49 48 51 51 50 50 49 48 48 49 49 49 49 51 50 50 51 51 50 51 54 56 58 58 57 60 62 64 67 67 61 60 55
28 35 50 57 58 57 57 56 55 53 53 54 56 57 57 57 57 54 55 56 56 55 56 57 56 56 56 56 56 57 60 62 61 62 63 62 65 67 68 58 55 51 57
26 27 29 32 39 44 46 52 55 58 60 61 62 62 62 62 60 60 61 62 61 62 62 63 62 62 61 62 61 62 64 66 67 66 69 71 66 66 52 47 50 56 53
36 34 33 34 33 35 38 38 38 41 46 50 56 60 66 68 66 67 68 67 67 68 70 70 69 69 68 68 67 68 68 71 70 71 70 71 63 46 46 53 55 57 59
44 44 43 41 39 39 39 40 42 42 45 48 48 48 49 50 49 51 53 55 58 63 69 73 75 77 77 74 72 73 72 73 72 69 65 49 41 42 51 50 63 64 62
48 46 46 44 44 44 42 40 39 42 42 40 42 46 49 51 52 54 54 55 55 56 58 60 63 65 68 69 72 69 65 67 61 45 36 33 36 48 51 62 69 66 65
56 54 53 51 50 49 48 47 45 44 43 43 44 43 44 47 50 52 56 57 60 58 59 57 56 56 57 57 59 56 39 41 25 30 34 37 44 53 58 71 69 73 71
57 56 59 58 57 56 53 52 51 52 51 49 50 48 48 49 50 52 56 55 59 57 59 56 53 55 53 46 42 32 23 26 29 30 37 43 46 46 61 72 75 81 75
65 61 59 57 58 59 59 59 59 58 58 59 57 56 54 55 53 58 60 60 55 57 66 59 56 46 50 33 26 14 10 21 31 35 38 45 52 66 75 69 75 75 77
71 69 67 65 64 64 65 65 65 64 63 63 62 59 59 60 59 61 60 61 61 63 53 57 56 42 49 52 28 24 25 23 24 25 40 39 52 74 75 80 78 81 81
78 77 74 73 73 72 71 71 70 68 67 68 65 62 61 60 61 62 58 59 62 59 54 45 45 38 38 43 37 26 27 24 23 28 42 53 52 62 71 73 70 75 85

GFSMW_250_spd_024.txt.gz
Wind_Speed
19 15 13 15 17 22 23 24 21 21 19 18 17 15 14 15 16 16 14 15 15 15 17 17 17 17 19 19 18 21 25 23 23 21 20 20 21 23 25 30 35 41 45
18 17 16 18 18 24 23 25 22 21 20 18 16 14 12 12 13 14 13 13 12 12 14 13 13 14 15 15 16 17 18 21 20 20 19 19 14 13 21 26 36 42 46
19 16 18 22 25 27 24 23 22 20 17 15 14 13 11 11 11 11 10 9 9 9 10 10 9 10 12 14 15 16 16 16 19 23 21 26 16 9 10 15 29 41 44
21 20 21 24 28 27 27 23 21 18 17 14 12 11 9 7 8 8 8 8 7 8 7 6 5 7 10 13 13 15 17 20 23 24 28 28 15 13 13 18 18 34 42
23 21 26 29 30 31 31 26 23 21 19 17 14 10 9 6 5 5 5 5 6 6 5 2 3 6 8 10 12 14 17 20 22 25 30 31 20 18 14 14 17 31 40
23 24 32 36 34 33 31 29 26 23 20 17 14 12 9 9 8 6 3 1 1 1 2 2 4 5 7 10 13 15 18 20 21 27 31 31 31 27 20 22 29 37 40
24 29 35 35 36 34 30 26 24 22 19 16 14 14 14 14 13 11 9 7 5 4 4 4 6 9 11 11 15 17 20 22 24 26 29 30 30 30 24 27 33 35 36
24 32 34 34 36 31 29 26 22 19 17 15 15 16 17 16 15 13 13 12 10 8 8 9 9 11 14 15 16 19 22 23 26 26 30 31 31 30 32 35 38 37 40
31 32 34 35 38 35 31 29 27 24 23 20 20 19 18 18 17 16 14 12 13 14 13 15 15 14 14 16 17 20 23 25 28 28 28 31 33 35 35 36 40 43 48
32 34 35 36 37 35 34 33 31 30 26 24 21 22 21 17 15 14 12 15 16 19 19 19 20 19 18 19 21 23 26 28 31 34 33 35 38 39 39 39 42 46 48
34 37 35 35 35 32 32 33 34 34 33 28 26 25 23 20 19 19 19 19 21 23 24 23 23 26 25 25 27 28 30 32 34 36 38 39 41 44 46 45 46 50 54
35 37 34 30 29 35 37 37 36 36 35 32 31 30 30 28 26 26 27 28 28 28 26 25 25 28 30 29 31 33 35 37 38 38 39 43 45 48 49 49 51 54 55
40 38 38 37 35 33 33 36 37 38 35 34 34 35 35 34 31 32 34 32 32 32 32 29 28 31 34 34 34 36 39 40 42 42 43 47 50 51 52 52 53 55 47
47 45 42 42 43 41 40 40 39 39 38 39 39 40 40 38 37 37 40 38 37 37 37 37 36 35 37 40 39 41 42 44 45 47 47 50 52 54 56 57 56 56 41
55 51 49 47 43 43 43 42 42 42 41 42 43 45 43 44 43 42 41 41 40 39 39 40 40 40 42 44 45 45 46 49 49 51 53 54 55 56 56 59 59 52 34
58 57 54 52 50 48 46 45 44 44 44 44 45 44 44 45 44 44 43 45 44 44 45 46 47 48 48 50 52 51 51 52 53 55 56 57 56 56 58 58 58 43 34
58 60 59 57 55 54 53 52 49 46 46 45 46 47 47 49 48 48 50 51 51 51 52 53 54 55 56 56 57 57 56 57 60 61 60 59 58 58 55 55 49 36 37
41 49 56 53 56 57 54 53 51 50 50 49 50 52 54 53 52 53 55 56 56 57 58 60 61 61 61 60 62 62 62 64 67 67 67 66 64 56 50 39 34 33 41
38 36 37 38 42 47 53 58 59 59 58 57 57 56 57 58 56 53 55 56 57 54 52 52 53 53 57 57 58 58 56 60 66 65 65 64 60 51 27 34 33 38 42
39 37 38 38 38 37 37 38 42 44 45 46 46 43 42 40 42 41 40 38 39 41 45 45 47 49 51 52 55 55 54 55 59 58 55 45 38 29 26 34 37 41 46
43 43 41 41 41 40 41 41 39 41 39 37 36 37 38 38 37 38 38 39 40 44 46 47 50 51 50 51 48 52 54 52 49 48 42 30 19 20 27 38 38 37 42
49 47 46 46 47 45 43 42 42 42 40 39 40 40 41 41 40 38 39 43 40 44 48 50 53 55 56 52 49 55 53 51 41 36 27 24 20 20 24 29 39 42 46
53 52 52 52 52 51 48 48 48 48 48 48 48 47 48 47 46 46 47 45 48 52 52 51 55 57 58 56 52 56 56 43 26 22 23 22 29 36 40 37 42 40 45
60 60 57 56 56 56 57 57 57 57 57 56 54 55 54 53 52 52 51 50 51 56 57 53 56 57 57 61 61 53 50 26 22 23 15 19 26 31 31 31 37 41 49
66 63 62 63 62 61 61 60 61 62 63 64 64 63 61 59 58 57 55 53 54 58 60 58 58 56 57 56 49 41 38 27 20 22 20 26 31 35 35 36 42 46 50
73 71 68 66 66 67 68 68 67 67 68 68 68 66 65 67 66 63 61 58 59 60 62 59 61 62 57 55 47 38 34 36 31 26 29 32 32 36 34 44 50 50 57

GFSMW_250_spd_027.txt.gz
Wind_Speed
20 19 17 14 18 22 25 21 22 20 19 18 16 16 16 15 15 16 16 16 15 16 17 17 18 18 17 17 19 19 19 22 22 21 24 16 7 10 16 24 31 40 44
22 21 18 16 19 24 24 22 23 22 20 18 18 15 14 14 14 14 13 13 11 12 12 12 14 14 14 12 15 17 20 23 24 26 26 16 9 8 13 20 26 30 44
24 25 24 19 20 26 26 25 23 22 20 19 18 17 16 14 13 11 11 10 10 8 8 8 10 11 12 12 15 17 19 22 24 27 31 32 19 16 16 22 24 29 35
23 24 28 23 22 28 26 26 24 23 21 19 18 16 14 11 10 9 8 7 7 6 5 4 6 7 8 10 12 16 17 19 22 25 28 29 29 26 21 23 27 30 34
19 22 26 25 27 31 29 29 26 26 23 20 18 15 13 12 9 7 6 5 5 4 2 2 3 6 9 9 12 14 16 18 21 22 23 24 25 26 25 23 27 31 36
20 20 27 30 32 35 33 32 30 28 26 22 19 14 10 7 6 5 4 3 1 1 2 3 3 5 8 11 13 14 16 17 18 21 23 25 27 27 27 27 31 34 35
18 20 29 34 33 38 36 34 32 29 26 21 18 14 12 9 8 8 6 5 5 5 5 5 7 9 11 13 13 15 17 19 19 21 24 25 25 26 28 30 31 34 37
20 25 28 34 37 37 35 31 30 28 26 22 20 18 15 14 13 12 12 12 10 9 9 9 10 11 12 12 13 15 17 19 22 23 25 26 27 28 29 32 33 36 37
22 26 26 34 40 38 37 33 30 27 25 22 22 22 20 18 16 15 15 14 13 13 11 12 14 15 16 16 17 18 19 20 23 25 27 28 29 31 34 37 36 38 41
26 26 30 36 41 40 39 36 33 31 28 29 28 23 20 19 18 18 16 13 12 13 13 15 18 20 21 21 21 23 23 23 26 27 30 32 31 32 34 37 38 38 41
30 27 33 39 40 39 40 40 39 37 35 33 30 27 23 23 21 18 17 15 15 16 15 18 18 23 26 25 25 26 27 27 29 31 33 36 37 38 37 38 40 40 41
34 29 32 37 38 39 40 40 39 38 38 36 34 31 27 25 23 23 22 20 19 21 22 21 20 25 27 29 29 30 30 31 33 36 38 39 41 43 43 41 42 42 44
39 33 33 36 39 39 39 40 40 41 40 37 36 33 30 29 27 27 26 25 25 29 29 29 28 29 32 34 33 33 34 35 36 38 40 43 45 45 46 47 46 46 45
47 43 35 38 41 42 43 40 38 37 35 36 35 35 34 32 31 32 33 32 34 34 34 34 31 31 33 36 38 39 39 41 42 43 46 48 50 50 51 51 52 51 50
52 48 45 41 43 43 43 44 43 42 40 38 36 38 35 34 36 37 37 40 39 38 38 38 37 37 39 42 43 44 45 47 49 50 52 53 54 56 56 57 57 56 53
58 54 51 49 44 45 49 47 44 42 40 40 40 39 39 39 41 41 41 44 42 40 41 41 44 46 46 48 50 54 55 56 57 58 58 59 59 59 58 59 57 56 51
62 58 55 53 51 49 48 47 46 44 43 42 41 38 41 43 43 42 42 42 42 44 47 48 50 52 54 56 57 59 59 59 58 58 59 60 59 61 57 57 54 50 41
62 64 61 59 56 56 54 52 50 49 47 45 44 44 45 45 44 44 45 46 47 49 51 53 56 55 55 53 50 49 48 49 51 52 52 53 52 54 49 45 42 34 29
43 54 63 63 61 60 59 58 56 54 52 52 51 49 48 48 48 49 48 50 51 53 53 47 45 46 45 44 43 42 43 45 49 52 52 51 47 43 41 34 29 22 23
37 38 42 54 65 66 64 63 63 60 59 59 57 53 51 53 53 52 52 52 46 43 37 39 39 38 40 42 43 46 46 49 46 48 48 47 45 35 26 28 20 22 27
46 42 39 40 43 47 54 63 67 67 67 62 59 54 51 53 52 46 42 38 36 32 34 36 38 38 42 45 51 54 53 52 48 53 51 43 45 30 26 13 13 20 28
47 43 40 40 39 39 41 43 44 47 49 49 46 47 46 44 42 39 36 35 35 34 37 38 41 45 47 50 51 54 56 56 55 54 42 33 32 28 13 16 15 26 32
47 44 43 41 40 42 43 43 44 45 46 44 43 43 42 42 42 41 41 40 40 40 43 44 46 49 51 50 54 55 55 57 55 53 32 26 19 17 12 20 27 29 29
59 54 50 47 47 46 47 49 49 50 49 48 47 47 47 47 47 47 46 46 48 49 50 49 48 50 52 53 56 57 57 60 59 53 44 24 22 20 12 16 28 35 30
65 60 56 53 53 52 51 52 53 53 52 54 55 54 54 54 54 54 53 55 55 54 56 57 57 58 58 59 57 58 57 62 59 56 46 32 32 30 25 34 30 34 28
70 67 65 62 58 58 59 59 57 58 58 59 60 60 61 61 60 60 60 60 60 58 59 61 62 61 64 64 62 64 64 59 58 55 53 37 37 31 25 26 27 36 37

GFSMW_250_spd_030.txt.gz
Wind_Speed
16 21 17 14 15 20 23 19 19 15 14 15 14 16 15 16 19 19 20 19 18 16 15 17 17 18 17 18 18 19 21 22 26 32 20 9 12 21 25 30 32 34 34
14 22 18 17 16 20 24 20 20 18 17 15 15 14 14 15 16 16 15 15 16 12 11 14 15 15 14 16 16 17 19 20 24 28 30 24 19 22 26 27 31 35 32
15 21 20 20 19 21 26 23 22 20 19 16 16 16 14 14 14 13 11 10 12 11 9 10 12 12 11 12 14 14 16 18 21 24 27 26 24 25 23 26 29 32 34
16 22 24 20 20 25 28 25 26 23 21 18 16 15 14 13 12 9 9 7 8 8 6 7 7 7 9 10 13 14 15 17 19 20 21 22 23 24 23 25 29 33 35
18 20 26 24 24 28 35 29 28 26 24 22 19 15 13 11 11 10 8 7 6 5 5 4 4 6 9 10 11 13 15 16 16 18 19 19 21 23 24 27 29 32 32
16 20 23 27 28 27 37 34 32 28 27 26 22 18 16 12 11 11 8 5 4 3 3 3 3 6 8 10 11 13 15 16 17 19 21 20 19 21 24 27 28 32 33
17 19 25 28 30 29 39 38 34 32 30 27 24 20 17 15 12 10 9 8 5 3 3 4 3 5 7 10 12 13 15 18 20 21 22 23 22 22 24 27 30 33 33
22 21 24 30 29 31 40 39 34 32 30 27 25 21 18 16 12 12 13 10 7 7 7 8 8 8 9 11 13 13 14 16 19 21 22 23 24 25 25 27 28 30 33
26 23 22 27 33 36 41 41 37 35 32 30 27 24 21 20 17 16 14 12 12 12 11 11 12 13 14 16 17 18 18 19 19 21 23 25 24 26 27 28 30 32 33
31 26 22 28 29 37 42 42 38 36 31 32 31 30 26 23 21 20 18 17 15 12 8 9 12 14 17 20 20 20 20 22 23 25 25 27 28 29 29 29 31 32 35
36 30 24 27 30 35 43 45 42 39 39 37 34 31 30 27 23 20 19 18 15 13 9 10 13 15 19 22 23 24 26 26 26 29 30 33 32 36 36 37 35 36 35
40 34 28 25 27 34 42 46 44 42 40 37 36 34 31 26 20 20 19 19 17 14 13 15 19 22 25 25 26 28 27 27 29 33 35 37 38 39 41 42 43 42 41
46 40 32 27 29 35 43 46 44 43 41 39 37 34 31 28 24 22 23 23 21 21 21 22 26 28 30 32 31 32 33 36 38 41 44 45 47 49 50 51 50 49 48
50 47 37 33 32 36 43 48 47 44 41 40 39 37 34 32 29 28 26 26 27 25 27 29 32 33 35 35 36 37 40 41 43 47 50 51 53 55 55 54 54 53 50
52 51 45 40 35 38 44 46 47 45 43 42 40 38 36 33 33 33 31 30 31 30 33 34 36 37 38 39 40 43 44 48 51 53 56 56 56 55 55 53 47 45 45
59 54 51 44 43 42 46 47 46 46 46 45 44 39 37 35 36 37 35 34 34 34 37 38 41 41 41 43 44 48 51 53 53 50 50 49 51 51 48 50 48 43 38
59 56 54 51 49 46 47 47 50 49 49 50 48 43 39 36 37 37 35 36 37 39 40 42 42 44 44 47 49 51 50 46 42 37 39 42 46 47 47 44 42 40 31
54 58 55 53 50 48 46 50 48 47 48 47 44 42 39 38 38 35 36 37 38 41 43 43 46 48 48 50 48 41 39 37 35 41 41 46 48 47 46 38 37 35 33
43 52 57 57 54 52 50 47 47 51 51 51 50 47 44 43 42 42 40 39 40 43 44 46 50 50 48 41 34 32 34 37 41 46 49 50 51 53 41 31 29 26 19
33 33 41 53 60 57 54 52 51 53 51 52 51 48 45 46 48 45 45 45 46 47 47 48 49 42 37 35 35 33 35 40 43 44 46 48 50 51 43 30 21 19 16
39 38 38 39 46 57 60 57 56 56 58 54 52 53 53 53 53 50 50 52 52 48 50 44 36 36 37 37 37 37 39 41 41 46 48 48 45 45 40 29 24 17 14
49 46 44 41 39 38 40 48 56 62 62 59 60 60 58 57 58 58 56 56 54 45 40 36 35 38 40 40 41 42 43 45 46 47 47 48 45 39 39 35 33 19 22
51 50 51 48 45 39 39 35 32 34 39 43 47 48 49 48 48 47 46 40 39 38 38 38 38 40 43 46 48 50 53 53 55 55 54 50 48 44 42 37 41 26 29
54 56 58 55 50 49 44 42 42 43 42 42 41 40 39 39 39 41 43 42 41 40 42 42 43 45 47 50 51 53 55 57 57 56 55 55 54 43 42 41 43 42 29
60 57 59 58 55 54 51 50 50 49 47 47 48 48 47 47 46 47 46 45 46 46 46 47 49 51 53 54 54 55 54 57 61 59 59 59 57 56 50 44 38 42 43
65 62 60 56 55 55 53 50 50 49 49 51 52 52 53 53 53 51 50 51 53 52 52 53 54 55 54 56 58 60 60 62 66 69 69 63 63 60 56 49 43 46 52

GFSMW_250_spd_033.txt.gz
Wind_Speed
14 8 16 12 9 12 19 17 16 15 14 16 20 17 16 17 17 16 17 17 17 16 15 16 16 16 16 16 18 22 22 24 27 26 19 23 25 27 30 34 35 36 27
17 6 16 15 10 12 21 20 19 16 16 16 18 17 16 18 17 15 15 14 13 14 12 14 13 14 15 16 17 19 20 22 23 24 23 22 23 24 27 30 31 31 23
14 6 16 17 13 13 22 22 21 19 17 16 16 17 15 15 17 15 13 12 10 11 11 12 11 11 12 13 14 16 18 20 20 20 21 21 22 23 25 28 31 34 29
21 9 15 19 17 14 26 26 25 23 20 19 19 17 15 16 15 13 11 12 12 9 7 7 8 10 10 10 13 16 17 19 20 18 17 18 19 21 23 25 28 29 32
27 20 13 19 23 20 26 29 29 27 24 22 20 18 17 17 15 11 10 10 10 8 6 5 6 7 8 8 10 12 14 16 17 17 17 16 16 18 21 24 26 28 29
24 14 13 22 24 26 22 34 33 30 28 25 23 21 20 18 17 15 12 11 9 8 6 5 4 5 7 8 9 10 13 14 15 16 15 15 15 16 17 20 24 27 28
24 19 17 21 25 29 25 36 36 34 32 28 26 24 23 20 18 17 15 13 10 8 6 3 1 2 4 6 8 10 11 12 13 15 16 17 19 19 19 18 22 24 26
29 26 24 22 24 28 29 32 40 37 34 30 27 26 24 22 20 18 17 13 11 9 7 4 2 4 7 9 11 12 13 14 14 15 19 20 21 23 22 24 24 26 26
38 39 28 20 28 27 34 29 42 40 37 33 32 29 27 25 23 21 18 17 15 12 9 7 5 5 7 9 10 11 11 13 17 19 21 24 26 27 29 28 28 27 29
41 38 27 25 28 31 35 32 42 44 40 37 34 33 30 27 25 21 19 18 16 13 9 8 6 7 9 10 13 15 16 17 21 23 24 27 31 33 34 36 39 40 39
44 40 34 29 24 29 36 36 43 47 45 43 39 35 34 31 26 22 20 19 16 13 12 11 11 11 13 14 17 19 22 23 24 27 30 32 33 36 41 42 43 43 44
49 42 37 30 26 29 32 41 45 49 47 43 38 39 37 33 27 23 19 18 17 16 17 18 17 17 18 19 22 24 25 25 28 32 35 38 42 45 47 48 47 44 44
54 50 42 35 32 31 33 40 46 48 47 45 43 42 40 33 28 23 20 19 19 21 23 23 23 22 24 25 27 29 29 31 35 38 41 44 46 46 43 42 41 40 41
55 51 47 42 37 31 35 39 45 48 50 47 45 42 39 34 30 28 27 25 22 25 28 28 28 28 28 29 31 33 33 36 40 44 47 44 39 37 37 41 41 40 38
51 53 50 44 39 35 34 39 45 48 50 48 46 43 39 35 32 30 31 31 28 26 31 33 33 32 32 32 35 35 37 40 44 47 41 35 33 33 38 40 41 39 35
47 54 53 50 45 41 37 40 46 49 51 51 48 43 41 37 34 34 34 34 31 30 33 34 35 35 33 35 37 38 41 43 44 38 33 32 35 36 40 45 48 34 27
46 50 55 52 48 46 40 37 44 48 49 52 48 46 42 37 35 35 36 34 35 35 36 37 37 36 35 36 37 40 43 43 34 31 33 36 39 43 44 45 47 35 31
42 44 49 53 50 48 44 38 38 45 49 50 50 47 43 39 37 38 36 36 36 39 39 38 38 37 37 38 39 41 44 35 32 30 30 32 36 41 45 46 46 39 30
31 35 43 52 53 49 44 40 37 37 42 48 49 47 45 42 39 40 40 39 39 39 37 35 38 40 40 40 40 43 35 33 31 31 31 34 39 40 41 45 42 41 31
32 29 37 45 55 53 50 47 43 43 44 49 51 48 43 42 42 43 44 42 41 41 41 41 43 43 44 44 44 35 32 32 30 33 33 37 41 41 41 37 41 45 42
39 34 31 40 48 56 55 50 49 49 50 47 42 41 41 43 45 45 45 46 44 44 46 47 46 49 48 44 36 30 31 32 32 35 37 40 42 43 42 41 39 40 40
44 38 33 31 32 41 53 56 54 54 53 50 47 46 47 48 48 49 50 49 48 48 49 50 52 51 45 37 33 33 33 34 36 39 39 42 43 46 47 47 46 43 40
50 47 43 37 34 34 36 44 54 60 58 55 53 54 54 54 53 52 52 50 51 51 50 48 46 43 39 38 36 38 39 39 40 43 44 47 49 52 55 55 55 51 48
56 60 51 45 40 41 42 40 38 41 50 56 60 60 58 57 55 55 54 53 52 47 43 41 40 38 40 39 41 42 43 45 46 46 47 50 54 55 56 56 55 54 52
62 61 59 54 51 51 50 47 46 43 40 38 41 44 44 45 48 50 50 47 44 42 42 41 40 43 44 44 45 45 47 51 51 51 53 55 57 57 58 55 52 51 52
63 60 58 57 58 55 54 55 55 51 47 45 45 45 45 44 45 44 42 43 42 42 42 42 44 46 49 48 50 51 52 53 53 52 53 55 58 59 60 56 55 57 58

GFSMW_250_spd_036.txt.gz
Wind_Speed
13 1 7 6 10 7 16 19 17 16 19 24 22 19 19 19 19 19 18 18 16 14 13 13 14 13 15 18 20 21 21 20 20 21 22 23 24 25 27 26 20 17 17
10 7 8 9 10 8 17 19 19 17 21 24 23 17 20 21 18 18 17 16 15 13 10 10 11 11 13 15 18 20 21 20 19 19 19 20 22 23 26 28 25 13 15
6 4 9 9 13 12 18 18 20 20 22 25 23 21 21 20 19 19 17 13 13 13 11 9 7 9 11 14 17 19 19 18 16 16 16 19 20 21 24 26 28 23 12
8 14 6 9 15 15 19 20 22 21 23 25 24 22 22 20 19 17 15 14 11 11 10 7 6 6 8 10 13 13 12 13 13 12 12 12 15 19 22 24 24 24 21
20 13 10 15 18 17 19 24 26 25 24 24 24 22 22 23 21 16 14 15 13 9 8 6 5 5 5 6 7 7 7 7 7 8 10 13 15 17 20 22 25 25 23
24 29 17 16 21 23 20 27 27 28 26 24 23 23 23 22 21 17 14 14 13 10 8 8 5 3 3 4 6 8 10 10 11 13 13 14 16 20 22 24 24 24 26
31 27 21 22 18 25 25 26 27 29 29 27 25 24 23 21 20 17 15 13 12 11 9 7 5 2 1 4 7 10 11 12 14 16 18 18 18 19 21 22 24 27 27
35 32 26 24 22 25 29 25 28 32 33 30 26 25 23 22 21 19 17 15 14 11 9 8 6 6 5 7 8 10 12 11 12 17 21 23 25 26 26 28 29 30 31
38 36 33 26 27 25 29 32 26 32 37 34 32 28 26 23 23 22 20 18 15 12 12 10 11 10 10 9 9 11 14 15 17 18 20 24 29 31 34 36 37 38 38
43 41 38 33 34 25 26 34 31 31 39 39 36 33 28 26 26 25 23 19 17 16 16 13 14 12 9 8 8 12 15 17 16 18 22 27 32 37 41 43 44 41 36
53 47 43 38 31 27 29 32 35 33 44 45 40 35 33 30 30 27 24 22 19 18 19 17 17 15 14 11 11 13 19 20 21 23 28 32 36 41 42 37 33 34 36
54 49 48 41 34 30 30 36 38 38 44 45 41 38 36 35 33 30 26 23 19 20 22 22 21 20 19 17 16 19 22 25 26 29 33 38 42 39 31 28 31 34 37
52 52 52 46 38 36 31 35 39 42 44 46 45 43 41 38 37 33 27 25 22 22 22 23 24 24 24 22 21 23 26 29 31 33 39 42 38 29 29 31 32 33 34
53 51 53 51 43 42 36 34 38 43 44 46 47 46 44 41 39 35 32 28 24 23 23 23 26 27 27 25 25 28 29 32 33 36 39 38 29 30 30 31 33 33 33
48 49 52 58 51 45 39 33 36 39 47 48 49 47 46 44 41 39 36 30 28 28 26 26 26 28 29 28 30 29 30 32 34 39 41 27 25 24 31 35 41 38 35
45 48 49 53 52 45 42 38 37 39 46 51 51 50 48 47 42 42 38 34 33 31 31 33 32 30 28 28 30 30 31 32 36 39 33 26 25 25 29 33 36 41 40
42 47 51 50 56 52 48 42 38 39 44 50 53 53 51 48 44 42 40 38 35 34 33 34 33 31 31 31 30 31 31 33 36 39 30 28 23 25 30 33 34 32 35
38 38 47 53 57 57 50 45 40 36 40 44 53 53 53 50 45 44 43 41 36 34 36 36 35 35 33 32 33 32 32 35 38 35 30 29 29 30 33 35 35 33 33
41 38 39 46 55 58 54 49 45 42 37 38 51 56 53 52 48 48 46 43 38 39 38 38 38 34 31 29 30 34 35 37 38 34 30 29 31 31 34 36 39 41 39
38 37 36 40 48 53 57 53 48 45 43 40 44 52 51 51 51 48 46 44 43 42 43 42 40 37 35 33 33 34 39 39 38 35 31 31 34 34 35 36 38 42 46
40 38 36 34 40 47 54 56 52 50 51 47 43 44 50 52 52 50 47 50 49 48 47 45 43 42 39 37 38 38 41 40 36 35 31 33 35 37 38 40 43 48 49
46 44 41 34 34 42 51 56 56 53 51 48 45 43 41 44 48 51 52 52 50 49 47 46 45 43 43 43 43 45 43 42 37 33 35 38 36 38 42 43 47 50 50
48 45 43 40 34 33 43 52 58 59 56 53 51 49 47 45 46 47 48 49 48 47 46 48 49 48 47 49 50 49 46 37 34 35 38 39 38 40 44 46 49 50 49
52 48 45 45 44 41 39 41 47 54 57 56 54 51 50 50 50 51 51 50 49 49 51 52 51 51 53 55 55 51 41 33 33 37 39 39 41 42 43 44 48 50 51
55 52 51 52 50 48 44 42 40 39 40 45 53 59 59 57 56 56 55 55 55 56 56 56 57 60 60 60 56 41 35 37 38 41 43 44 45 44 44 45 47 51 53
61 59 61 58 57 55 52 49 46 43 39 38 39 40 44 52 58 60 61 62 63 64 64 64 63 60 54 46 39 36 40 42 44 45 46 47 46 46 47 49 51 55 59

GFSMW_250_spd_042.txt.gz
Wind_Speed
9 11 6 5 8 10 8 13 12 11 13 14 18 18 19 20 21 19 16 15 13 12 12 13 12 12 15 18 18 18 21 23 23 24 24 25 27 27 28 21 18 19 19
7 3 5 7 8 10 12 14 13 14 17 17 18 20 19 18 16 18 14 12 11 10 11 9 11 10 13 16 17 19 19 21 22 23 24 25 25 24 23 21 21 22 22
8 6 3 7 8 11 10 13 12 13 15 19 19 20 19 18 18 17 15 11 9 7 7 9 10 10 10 13 14 15 16 17 18 20 23 25 25 24 23 22 21 21 20
11 13 7 1 4 8 12 14 15 14 17 19 20 21 20 21 19 16 14 10 8 8 7 4 6 7 7 8 10 10 11 13 15 18 19 20 20 22 26 26 26 26 27
9 18 8 7 4 8 14 12 15 16 18 22 22 20 19 20 18 15 12 10 9 8 6 2 3 4 4 4 5 9 12 14 15 15 18 18 20 23 25 28 31 32 31
16 18 12 12 6 14 13 15 15 16 16 22 23 19 21 20 17 15 13 11 9 8 6 3 2 1 2 3 8 12 14 14 13 15 18 20 23 27 31 34 35 31 27
19 19 22 12 9 10 17 15 16 18 17 19 23 23 23 21 19 17 15 13 13 11 9 7 6 2 2 5 8 12 13 14 16 17 19 21 26 31 36 36 29 27 29
22 23 24 19 15 16 18 20 20 19 21 20 21 23 21 21 21 18 16 13 13 13 12 10 9 6 6 6 7 6 9 13 16 19 20 23 27 34 36 29 29 31 35
31 30 31 21 16 18 21 24 22 24 23 25 23 24 22 22 21 19 19 17 16 15 15 12 11 9 9 7 5 3 4 10 15 20 23 25 29 36 28 26 28 31 34
35 31 29 24 21 19 24 26 23 24 25 26 29 28 24 23 23 23 23 21 19 18 17 15 13 13 12 11 9 8 7 12 17 21 24 26 30 36 27 26 25 29 31
35 33 31 30 25 21 25 26 24 23 29 29 29 28 28 27 28 25 26 25 22 20 21 18 16 15 15 13 13 14 13 15 19 24 25 26 29 34 27 24 26 28 30
36 36 35 32 29 27 26 31 30 31 32 32 31 32 31 31 30 29 28 27 24 25 24 23 19 18 17 15 15 16 17 17 21 25 26 27 28 33 28 24 27 28 28
39 39 36 30 32 31 30 33 33 32 35 33 33 35 35 34 34 34 32 29 29 28 28 25 20 18 17 16 15 15 17 20 22 24 26 26 27 32 30 26 26 29 28
42 40 38 34 36 35 34 34 36 35 32 36 39 38 40 39 37 36 36 33 33 33 32 28 23 17 16 15 12 14 17 21 21 22 23 24 26 29 31 28 26 26 26
46 43 41 42 41 40 38 37 38 36 34 33 38 41 42 42 40 40 39 37 36 35 34 31 26 21 18 17 18 19 21 22 22 23 23 24 24 27 29 28 26 24 22
45 42 41 44 42 43 43 40 41 40 38 37 35 37 39 41 44 44 42 42 40 38 36 35 32 26 24 23 21 22 22 23 23 23 26 24 23 26 31 30 27 24 23
47 44 44 45 44 43 45 43 44 44 44 40 38 36 36 43 42 43 44 43 42 41 38 38 36 32 28 26 26 26 25 25 24 24 23 23 24 28 31 31 28 24 23
49 47 46 46 45 44 44 44 44 46 47 45 42 41 37 37 41 44 46 45 44 42 42 40 38 36 33 30 30 30 28 26 25 24 25 25 26 28 31 34 29 21 23
51 49 48 47 45 44 43 44 45 46 47 47 45 44 43 36 37 42 42 47 45 44 42 41 40 40 38 35 33 33 32 31 30 29 29 31 31 30 32 36 34 26 25
53 51 49 47 47 48 45 44 47 47 48 50 49 47 44 41 38 38 38 37 46 46 45 43 43 41 40 39 37 36 37 37 33 32 35 36 36 34 34 37 37 31 25
55 54 51 49 48 47 46 45 46 50 52 51 53 53 48 45 42 36 34 37 41 47 49 48 46 45 44 43 42 41 40 43 40 37 38 39 38 39 39 39 41 35 29
56 54 51 51 48 47 48 46 45 49 49 50 50 53 51 49 46 41 38 35 39 45 52 51 50 48 48 47 47 46 47 47 47 44 42 42 41 41 43 43 44 41 33
55 54 54 52 49 48 48 45 44 42 45 49 51 52 54 53 51 48 45 42 37 41 46 51 51 52 52 52 52 50 49 49 50 48 46 45 46 45 46 46 46 41 37
57 56 56 55 51 49 48 47 46 44 46 46 47 48 51 54 56 54 51 48 46 42 43 49 54 55 55 56 54 52 52 50 51 48 47 48 50 51 50 50 45 41 40
60 59 58 56 52 52 51 50 47 45 45 47 48 50 53 54 54 56 55 54 54 53 49 47 47 51 53 52 51 50 50 48 47 48 51 52 54 54 55 51 43 42 41
59 61 59 57 54 54 55 53 50 49 48 47 47 47 49 53 54 55 58 58 57 56 54 51 48 45 47 47 47 47 47 48 49 52 54 55 56 60 54 48 48 46 45

GFSMW_250_spd_045.txt.gz
Wind_Speed
6 7 8 5 6 6 7 8 11 12 16 19 16 18 19 19 17 14 13 10 10 11 13 16 17 19 21 20 21 22 22 24 25 25 26 25 24 21 19 19 20 20 20
8 4 0 4 6 5 8 10 11 14 17 19 19 19 20 19 16 15 15 9 7 9 9 14 14 15 17 16 17 20 21 21 22 22 21 22 22 23 22 21 20 19 17
12 8 6 1 5 5 6 8 9 11 17 18 20 18 19 18 16 15 12 7 4 5 7 10 11 12 12 13 14 16 16 17 18 20 20 21 22 24 26 27 27 25 21
11 11 11 9 3 5 6 9 11 10 15 18 19 20 21 20 17 16 11 6 3 4 3 7 9 8 8 10 12 13 14 16 17 19 19 21 25 28 31 32 29 26 24
14 14 16 10 8 1 5 7 11 11 14 19 21 21 20 18 17 14 11 9 4 3 1 3 6 5 5 7 10 13 15 16 16 17 18 23 27 32 33 29 29 29 30
17 16 19 11 6 5 5 8 13 13 13 20 21 20 20 21 18 14 12 9 6 4 4 3 1 2 2 6 9 12 14 15 16 17 19 22 27 34 31 29 29 30 32
17 18 18 16 10 8 9 6 11 16 16 16 19 23 21 21 20 16 15 10 9 7 8 7 4 1 2 6 8 10 11 13 16 19 21 24 29 36 31 29 28 31 36
21 24 22 23 13 10 11 8 11 16 18 16 17 22 22 22 19 18 16 13 11 11 8 8 7 5 4 6 8 6 6 10 14 19 22 26 28 32 32 29 28 32 32
27 26 26 28 22 15 15 14 15 17 20 20 18 20 20 23 22 19 18 16 13 13 11 9 8 8 6 6 8 7 5 9 15 18 22 24 25 30 32 28 28 30 31
31 29 30 27 30 23 17 14 17 21 19 22 24 23 22 22 22 23 22 20 19 16 13 12 11 11 9 9 9 11 10 10 15 18 21 22 24 27 29 28 24 27 29
37 35 36 31 32 29 21 17 19 21 23 25 29 28 26 25 26 24 22 22 21 18 16 16 15 13 13 13 13 13 15 15 15 18 21 21 22 23 27 26 22 24 27
42 37 34 33 32 28 23 21 21 21 23 24 28 31 29 28 28 26 24 24 23 20 20 19 18 16 15 15 16 14 15 15 16 19 20 20 21 21 24 25 22 24 23
43 37 33 34 32 30 27 24 25 27 28 25 27 30 32 32 31 28 26 26 25 23 24 23 22 20 18 16 17 14 13 13 17 19 19 19 19 19 21 25 23 22 22
44 39 35 35 33 31 29 28 28 29 29 29 30 33 35 36 34 32 31 28 27 27 27 26 26 25 20 17 16 13 13 15 18 20 20 21 19 19 19 22 25 21 24
43 40 37 37 37 35 33 32 31 31 33 32 32 33 36 34 35 36 35 33 32 31 30 30 29 28 26 22 18 18 19 20 21 22 21 23 21 21 19 19 23 22 22
45 44 46 44 41 40 39 38 35 35 35 36 37 35 33 34 37 36 39 37 36 35 35 34 32 33 32 29 24 23 24 24 23 23 23 25 25 20 21 21 23 26 20
50 50 49 47 46 43 41 40 38 35 36 38 38 36 35 31 34 36 38 40 40 39 40 37 37 34 34 35 32 29 29 27 26 25 25 26 25 23 24 23 22 24 24
55 55 51 48 46 44 40 37 36 35 36 37 40 40 38 36 31 32 40 38 39 43 43 41 39 38 37 37 37 35 33 31 30 29 28 27 28 27 27 28 25 25 27
60 56 52 49 47 45 40 39 40 39 38 39 41 42 41 39 38 37 34 35 40 40 45 44 43 41 40 40 39 39 38 36 34 33 32 29 30 31 31 32 31 27 29
63 55 55 53 49 44 42 41 40 41 41 41 43 43 44 43 42 40 36 33 35 40 41 47 47 46 44 42 41 42 41 40 39 38 36 34 33 33 33 35 34 33 31
59 56 56 53 50 48 45 43 41 43 44 43 45 44 44 45 44 42 38 38 36 36 41 43 48 49 48 46 43 43 43 43 43 42 40 38 37 40 39 39 37 36 36
60 58 56 54 51 49 46 45 43 46 47 45 44 44 46 46 46 45 42 41 41 40 39 42 45 48 48 48 47 46 48 48 49 47 45 43 41 43 45 43 40 40 40
63 61 58 56 53 51 49 47 45 46 48 48 48 46 47 47 47 49 49 47 47 45 43 41 42 43 44 45 47 50 52 53 53 50 47 47 46 47 48 46 43 43 44
67 64 61 58 54 53 50 47 46 51 50 47 46 47 48 48 49 50 51 53 53 51 49 47 45 41 40 44 48 52 56 58 52 48 50 51 51 51 51 48 46 46 47
71 67 64 60 57 54 52 51 50 51 51 44 46 45 44 46 47 50 53 56 56 54 53 52 50 49 49 45 44 48 50 49 49 50 51 54 54 52 50 48 48 50 51
70 68 66 64 63 60 56 52 51 51 49 45 45 42 40 42 45 47 49 52 55 56 56 56 56 56 54 51 47 46 45 47 49 51 52 51 50 50 50 51 52 53 52